No;Time;Interval(mi);Indoor Humidity(%);Indoor Temperature(�C);Outdoor Humidity(%);Outdoor Temperature(�C);Absolute Pressure(Hpa);Wind(m/s);Gust(m/s);Direction;Relative Pressure(Hpa);Dewpoint(�C);Windchill(�C);Total Rainfall(mm)
1;2019-08-01 00:13:00;15;40;25.1;56;18.1;1013.6;0.0;0.0;SSW;1016.8;9.2;18.1;294.9;
2;2019-08-01 00:28:00;15;40;25.1;58;17.5;1013.8;0.0;0.0;SSW;1017.0;9.1;17.5;294.9;
3;2019-08-01 00:43:00;15;41;25.1;63;17.2;1013.7;0.0;0.0;SSW;1016.9;10.1;17.2;294.9;
4;2019-08-01 00:58:00;15;41;25.1;64;17.4;1013.7;0.0;0.0;SSW;1016.9;10.5;17.4;294.9;
5;2019-08-01 01:13:00;15;41;25.1;60;17.6;1013.6;0.0;0.0;SSW;1016.8;9.7;17.6;294.9;
6;2019-08-01 01:28:00;15;41;25.1;60;18.2;1013.4;0.0;0.0;SSW;1016.6;10.3;18.2;294.9;
7;2019-08-01 01:43:00;15;41;25.1;60;18.2;1013.4;0.0;0.0;SSW;1016.6;10.3;18.2;294.9;
8;2019-08-01 01:58:00;15;41;25.1;59;18.6;1013.5;0.0;0.0;SSW;1016.7;10.4;18.6;294.9;
9;2019-08-01 02:13:00;15;41;25.1;58;18.6;1013.5;0.0;0.0;SSW;1016.7;10.2;18.6;294.9;
10;2019-08-01 02:28:00;15;41;25.1;60;18.0;1013.5;0.0;0.0;SSW;1016.7;10.1;18.0;294.9;
11;2019-08-01 02:43:00;15;41;25.1;62;17.6;1013.6;0.0;0.0;SSW;1016.8;10.2;17.6;294.9;
12;2019-08-01 02:58:00;15;41;25.1;66;17.0;1013.2;0.0;0.0;SSW;1016.4;10.6;17.0;294.9;
13;2019-08-01 03:13:00;15;41;25.1;67;16.7;1013.1;0.0;0.0;SSW;1016.3;10.5;16.7;294.9;
14;2019-08-01 03:28:00;15;41;25.1;68;16.6;1013.3;0.0;0.0;SSW;1016.5;10.7;16.6;294.9;
15;2019-08-01 03:43:00;15;42;25.1;69;16.2;1013.5;0.0;0.0;SSW;1016.7;10.5;16.2;294.9;
16;2019-08-01 03:58:00;15;42;25.1;70;15.8;1013.3;0.0;0.0;SSW;1016.5;10.3;15.8;294.9;
17;2019-08-01 04:13:00;15;42;25.1;70;16.0;1013.5;0.0;0.0;SSW;1016.7;10.5;16.0;294.9;
18;2019-08-01 04:28:00;15;42;25.1;70;15.7;1013.3;0.0;0.0;SSW;1016.5;10.2;15.7;294.9;
19;2019-08-01 04:43:00;15;42;25.1;70;16.0;1013.4;0.0;0.0;SSW;1016.6;10.5;16.0;294.9;
20;2019-08-01 04:58:00;15;42;25.1;70;15.9;1013.5;0.0;0.0;SSW;1016.7;10.4;15.9;294.9;
21;2019-08-01 05:13:00;15;42;25.1;71;16.0;1013.3;0.0;0.0;SSW;1016.5;10.7;16.0;294.9;
22;2019-08-01 05:28:00;15;42;25.1;70;16.3;1013.3;0.0;0.0;SSW;1016.5;10.8;16.3;294.9;
23;2019-08-01 05:43:00;15;42;25.0;70;16.2;1013.3;0.0;0.0;SSW;1016.5;10.7;16.2;294.9;
24;2019-08-01 05:58:00;15;43;25.0;69;16.5;1013.5;0.0;0.0;SSW;1016.7;10.8;16.5;294.9;
25;2019-08-01 06:13:00;15;41;25.0;70;16.8;1013.8;0.0;0.0;SSW;1017.0;11.3;16.8;294.9;
26;2019-08-01 06:28:00;15;42;24.7;62;18.2;1013.7;0.0;0.0;SSW;1016.9;10.8;18.2;294.9;
27;2019-08-01 06:43:00;15;42;24.6;57;20.3;1013.7;0.0;0.0;SSW;1016.9;11.5;20.3;294.9;
28;2019-08-01 06:58:00;15;42;24.4;49;22.5;1013.8;0.0;0.0;SSW;1017.0;11.2;22.5;294.9;
29;2019-08-01 07:13:00;15;42;24.4;48;23.0;1013.8;0.0;0.0;SSW;1017.0;11.4;23.0;294.9;
30;2019-08-01 07:28:00;15;42;24.4;45;24.1;1013.7;0.0;0.0;SSW;1016.9;11.4;24.1;294.9;
31;2019-08-01 07:43:00;15;43;24.4;44;25.0;1013.7;0.0;0.0;SSW;1016.9;11.9;25.0;294.9;
32;2019-08-01 07:58:00;15;43;24.4;43;25.9;1013.6;0.0;0.0;SSW;1016.8;12.3;25.9;294.9;
33;2019-08-01 08:13:00;15;43;24.4;42;26.8;1013.4;0.0;0.0;N;1016.6;12.8;26.8;294.9;
34;2019-08-01 08:28:00;15;43;24.4;35;27.7;1013.3;0.0;0.0;SSW;1016.5;10.8;27.7;294.9;
35;2019-08-01 08:43:00;15;43;24.4;35;28.4;1013.4;0.0;0.0;SSW;1016.6;11.4;28.4;294.9;
36;2019-08-01 08:58:00;15;43;24.4;38;27.4;1013.5;0.0;0.0;SSW;1016.7;11.8;27.4;294.9;
37;2019-08-01 09:13:00;15;43;24.4;40;27.4;1013.5;0.0;0.0;SSW;1016.7;12.6;27.4;294.9;
38;2019-08-01 09:28:00;15;43;24.5;40;27.3;1013.4;0.0;0.0;N;1016.6;12.5;27.3;294.9;
39;2019-08-01 09:43:00;15;44;24.5;33;29.2;1013.2;0.0;0.0;SW;1016.4;11.3;29.2;294.9;
40;2019-08-01 09:58:00;15;44;24.6;31;30.8;1013.4;0.0;0.0;N;1016.6;11.7;30.8;294.9;
41;2019-08-01 10:13:00;15;44;24.6;30;30.8;1013.2;0.0;0.0;SW;1016.4;11.2;30.8;294.9;
42;2019-08-01 10:28:00;15;44;24.7;30;31.1;1013.2;0.0;0.3;N;1016.4;11.5;31.1;294.9;
43;2019-08-01 10:43:00;15;45;24.7;31;29.4;1013.1;0.0;0.0;E;1016.3;10.5;29.4;294.9;
44;2019-08-01 10:58:00;15;46;24.8;33;29.0;1012.8;0.0;0.3;SE;1016.0;11.1;29.0;294.9;
45;2019-08-01 11:13:00;15;45;24.9;30;31.2;1012.9;0.0;0.0;SSW;1016.1;11.5;31.2;294.9;
46;2019-08-01 11:28:00;15;45;24.9;30;30.1;1012.6;0.0;0.0;SW;1015.8;10.6;30.1;294.9;
47;2019-08-01 11:43:00;15;44;25.0;23;32.6;1012.8;0.0;0.0;SW;1016.0;8.8;32.6;294.9;
48;2019-08-01 11:58:00;15;44;25.0;28;32.2;1012.5;0.0;0.0;SSW;1015.7;11.4;32.2;294.9;
49;2019-08-01 12:13:00;15;45;25.1;31;31.2;1012.1;0.0;0.0;SSW;1015.3;12.0;31.2;294.9;
50;2019-08-01 12:28:00;15;45;25.1;31;31.5;1012.1;0.0;0.0;SSW;1015.3;12.3;31.5;294.9;
51;2019-08-01 12:43:00;15;45;25.1;30;32.3;1012.1;0.0;0.0;E;1015.3;12.5;32.3;294.9;
52;2019-08-01 12:58:00;15;46;25.1;23;33.2;1012.0;0.0;0.3;SE;1015.2;9.3;33.2;294.9;
53;2019-08-01 13:13:00;15;45;25.1;30;30.9;1012.1;0.0;0.0;SE;1015.3;11.3;30.9;294.9;
54;2019-08-01 13:28:00;15;45;25.1;32;30.2;1011.9;0.0;0.0;SE;1015.1;11.7;30.2;294.9;
55;2019-08-01 13:43:00;15;45;25.1;30;31.8;1011.8;0.0;0.0;SE;1015.0;12.1;31.8;294.9;
56;2019-08-01 13:58:00;15;45;25.1;28;32.0;1011.7;0.0;0.0;SE;1014.9;11.2;32.0;294.9;
57;2019-08-01 14:13:00;15;45;25.1;30;31.8;1011.4;0.0;0.0;E;1014.6;12.1;31.8;294.9;
58;2019-08-01 14:28:00;15;45;25.1;31;30.8;1011.3;0.0;0.0;SE;1014.5;11.7;30.8;294.9;
59;2019-08-01 14:43:00;15;45;25.1;24;33.4;1011.3;0.0;0.0;SE;1014.5;10.1;33.4;294.9;
60;2019-08-01 14:58:00;15;45;25.1;30;30.8;1011.3;0.0;0.0;E;1014.5;11.2;30.8;294.9;
61;2019-08-01 15:13:00;15;45;25.1;31;29.4;1011.0;0.0;0.0;E;1014.2;10.5;29.4;294.9;
62;2019-08-01 15:28:00;15;45;25.1;31;28.6;1011.1;0.0;0.0;SE;1014.3;9.8;28.6;294.9;
63;2019-08-01 15:43:00;15;45;25.1;32;28.2;1010.9;0.0;0.0;ESE;1014.1;9.9;28.2;294.9;
64;2019-08-01 15:58:00;15;44;25.1;32;28.0;1011.2;0.0;0.0;SE;1014.4;9.8;28.0;294.9;
65;2019-08-01 16:13:00;15;44;25.1;32;27.9;1010.9;0.0;0.0;E;1014.1;9.7;27.9;294.9;
66;2019-08-01 16:28:00;15;45;25.1;33;27.8;1010.9;0.0;0.0;SE;1014.1;10.0;27.8;294.9;
67;2019-08-01 16:43:00;15;45;25.1;32;28.0;1011.0;0.0;0.0;SE;1014.2;9.8;28.0;294.9;
68;2019-08-01 16:58:00;15;43;25.1;33;27.7;1010.8;0.0;0.0;E;1014.0;10.0;27.7;294.9;
69;2019-08-01 17:13:00;15;42;25.1;32;27.5;1010.8;0.0;0.0;SE;1014.0;9.3;27.5;294.9;
70;2019-08-01 17:28:00;15;41;25.1;36;26.9;1010.9;0.0;0.0;SE;1014.1;10.6;26.9;294.9;
71;2019-08-01 17:43:00;15;41;25.1;37;26.5;1010.7;0.0;0.0;E;1013.9;10.6;26.5;294.9;
72;2019-08-01 17:58:00;15;41;25.1;39;26.1;1010.9;0.0;0.0;SE;1014.1;11.0;26.1;294.9;
73;2019-08-01 18:13:00;15;41;25.1;40;25.8;1010.9;0.0;0.0;SE;1014.1;11.2;25.8;294.9;
74;2019-08-01 18:28:00;15;41;25.1;40;25.6;1011.0;0.0;0.0;N;1014.2;11.0;25.6;294.9;
75;2019-08-01 18:43:00;15;42;25.1;40;25.4;1010.9;0.0;0.0;SE;1014.1;10.8;25.4;294.9;
76;2019-08-01 18:58:00;15;44;25.1;40;25.2;1011.0;0.0;0.0;SE;1014.2;10.6;25.2;294.9;
77;2019-08-01 19:13:00;15;43;25.1;41;25.0;1011.0;0.0;0.0;SE;1014.2;10.8;25.0;294.9;
78;2019-08-01 19:28:00;15;42;25.1;41;24.7;1010.9;0.0;0.0;SE;1014.1;10.6;24.7;294.9;
79;2019-08-01 19:43:00;15;42;25.1;42;24.6;1011.1;0.0;0.0;SE;1014.3;10.8;24.6;294.9;
80;2019-08-01 19:58:00;15;42;25.1;42;24.4;1011.4;0.0;0.0;SE;1014.6;10.6;24.4;294.9;
81;2019-08-01 20:13:00;15;42;25.1;46;24.3;1011.6;0.0;0.7;SE;1014.8;11.9;24.3;294.9;
82;2019-08-01 20:28:00;15;43;25.1;48;23.7;1011.9;0.0;0.3;SE;1015.1;12.0;23.7;294.9;
83;2019-08-01 20:43:00;15;44;25.1;49;23.0;1012.0;0.0;0.3;SE;1015.2;11.7;23.0;294.9;
84;2019-08-01 20:58:00;15;44;25.1;50;22.6;1011.8;0.0;0.3;SSW;1015.0;11.6;22.6;294.9;
85;2019-08-01 21:13:00;15;44;25.1;52;22.3;1011.9;0.0;0.0;SE;1015.1;12.0;22.3;294.9;
86;2019-08-01 21:28:00;15;44;25.1;53;22.0;1011.8;0.0;0.0;E;1015.0;12.0;22.0;294.9;
87;2019-08-01 21:43:00;15;44;25.1;53;21.8;1012.1;0.0;0.0;E;1015.3;11.8;21.8;294.9;
88;2019-08-01 21:58:00;15;44;25.1;54;21.5;1012.2;0.0;0.0;E;1015.4;11.8;21.5;294.9;
89;2019-08-01 22:13:00;15;44;25.1;54;21.3;1012.2;0.0;0.0;SE;1015.4;11.6;21.3;294.9;
90;2019-08-01 22:28:00;15;44;25.1;55;21.0;1012.5;0.0;0.0;SE;1015.7;11.6;21.0;294.9;
91;2019-08-01 22:43:00;15;44;25.1;55;20.8;1012.6;0.0;0.0;E;1015.8;11.4;20.8;294.9;
92;2019-08-01 22:57:59;15;44;25.1;55;20.6;1012.6;0.0;0.0;E;1015.8;11.2;20.6;294.9;
93;2019-08-01 23:12:59;15;44;25.1;56;20.5;1012.4;0.0;0.0;SE;1015.6;11.4;20.5;294.9;
94;2019-08-01 23:28:00;15;44;25.1;56;20.3;1012.5;0.0;0.0;SE;1015.7;11.2;20.3;294.9;
95;2019-08-01 23:43:00;15;44;25.1;57;20.1;1012.5;0.0;0.0;SE;1015.7;11.3;20.1;294.9;
96;2019-08-01 23:58:00;15;44;25.1;57;20.0;1012.5;0.0;0.0;SE;1015.7;11.2;20.0;294.9;
97;2019-08-02 00:13:00;15;44;25.1;56;19.9;1012.4;0.0;0.0;SE;1015.6;10.9;19.9;294.9;
98;2019-08-02 00:28:00;15;44;25.1;57;19.8;1012.6;0.0;0.0;SE;1015.8;11.0;19.8;294.9;
99;2019-08-02 00:43:00;15;44;25.1;58;19.6;1012.3;0.0;0.0;SE;1015.5;11.1;19.6;294.9;
100;2019-08-02 00:58:00;15;44;25.1;60;19.3;1012.1;0.0;0.0;SE;1015.3;11.3;19.3;294.9;
101;2019-08-02 01:13:00;15;44;25.1;60;19.3;1012.0;0.0;0.0;E;1015.2;11.3;19.3;294.9;
102;2019-08-02 01:28:00;15;44;25.1;61;19.0;1012.2;0.0;0.0;ESE;1015.4;11.3;19.0;294.9;
103;2019-08-02 01:43:00;15;44;25.1;61;18.8;1012.2;0.0;0.0;SE;1015.4;11.1;18.8;294.9;
104;2019-08-02 01:58:00;15;44;25.1;62;18.6;1012.2;0.0;0.0;SE;1015.4;11.2;18.6;294.9;
105;2019-08-02 02:13:00;15;44;25.1;62;18.3;1012.3;0.0;0.0;SE;1015.5;10.9;18.3;294.9;
106;2019-08-02 02:28:00;15;44;25.1;62;18.2;1012.2;0.0;0.0;SE;1015.4;10.8;18.2;294.9;
107;2019-08-02 02:43:00;15;44;25.1;62;18.3;1012.2;0.0;0.0;SE;1015.4;10.9;18.3;294.9;
108;2019-08-02 02:58:00;15;44;25.1;61;18.4;1012.3;0.0;0.0;SE;1015.5;10.7;18.4;294.9;
109;2019-08-02 03:13:00;15;44;25.1;60;18.7;1012.0;0.0;0.0;E;1015.2;10.8;18.7;294.9;
110;2019-08-02 03:28:00;15;44;25.1;60;18.7;1012.2;0.0;0.0;E;1015.4;10.8;18.7;294.9;
111;2019-08-02 03:43:00;15;44;25.1;60;18.6;1012.2;0.0;0.0;E;1015.4;10.7;18.6;294.9;
112;2019-08-02 03:58:00;15;44;25.1;60;18.6;1012.1;0.0;0.0;SE;1015.3;10.7;18.6;294.9;
113;2019-08-02 04:13:00;15;44;25.1;60;18.4;1012.2;0.0;0.0;SE;1015.4;10.5;18.4;294.9;
114;2019-08-02 04:28:00;15;44;25.1;60;18.0;1012.3;0.0;0.0;SE;1015.5;10.1;18.0;294.9;
115;2019-08-02 04:43:00;15;44;25.1;61;17.7;1012.4;0.0;0.0;SE;1015.6;10.1;17.7;294.9;
116;2019-08-02 04:58:00;15;44;25.1;65;17.4;1012.4;0.0;0.0;SE;1015.6;10.7;17.4;294.9;
117;2019-08-02 05:13:00;15;44;25.1;62;17.8;1012.3;0.0;0.0;E;1015.5;10.4;17.8;294.9;
118;2019-08-02 05:28:00;15;44;25.1;61;18.2;1012.5;0.0;0.0;SE;1015.7;10.6;18.2;294.9;
119;2019-08-02 05:43:00;15;44;25.1;61;18.4;1012.7;0.0;0.0;SE;1015.9;10.7;18.4;294.9;
120;2019-08-02 05:58:00;15;44;25.1;60;18.5;1012.5;0.0;0.0;NE;1015.7;10.6;18.5;294.9;
121;2019-08-02 06:13:00;15;44;25.1;61;18.5;1012.6;0.0;0.0;E;1015.8;10.8;18.5;294.9;
122;2019-08-02 06:28:00;15;44;25.1;61;19.6;1012.8;0.0;0.0;NE;1016.0;11.9;19.6;294.9;
123;2019-08-02 06:43:00;15;44;25.1;57;21.0;1013.0;0.0;0.0;SE;1016.2;12.1;21.0;294.9;
124;2019-08-02 06:58:00;15;44;25.1;56;22.4;1013.1;0.0;0.0;SE;1016.3;13.2;22.4;294.9;
125;2019-08-02 07:13:00;15;44;25.1;51;23.3;1013.1;0.0;0.0;SE;1016.3;12.6;23.3;294.9;
126;2019-08-02 07:28:00;15;44;25.1;50;23.9;1012.8;0.0;0.0;E;1016.0;12.8;23.9;294.9;
127;2019-08-02 07:43:00;15;44;25.1;50;24.1;1013.0;0.0;0.0;E;1016.2;13.0;24.1;294.9;
128;2019-08-02 07:58:00;15;44;25.1;49;25.2;1013.0;0.0;0.0;SE;1016.2;13.7;25.2;294.9;
129;2019-08-02 08:13:00;15;44;25.1;46;26.0;1013.1;0.0;0.3;E;1016.3;13.5;26.0;294.9;
130;2019-08-02 08:28:00;15;44;25.1;44;26.0;1013.2;0.0;0.0;ESE;1016.4;12.8;26.0;294.9;
131;2019-08-02 08:43:00;15;45;25.1;40;28.4;1013.2;0.0;0.0;E;1016.4;13.5;28.4;294.9;
132;2019-08-02 08:58:00;15;44;25.1;36;28.8;1013.3;0.0;0.7;SE;1016.5;12.2;28.8;294.9;
133;2019-08-02 09:13:00;15;44;25.1;36;28.9;1013.3;0.0;0.0;E;1016.5;12.3;28.9;294.9;
134;2019-08-02 09:28:00;15;44;25.1;35;29.9;1013.2;0.0;0.0;SE;1016.4;12.8;29.9;294.9;
135;2019-08-02 09:43:00;15;44;25.1;32;30.6;1013.3;0.0;0.0;NE;1016.5;12.0;30.6;294.9;
136;2019-08-02 09:58:00;15;44;25.1;32;31.2;1013.3;0.0;0.3;N;1016.5;12.5;31.2;294.9;
137;2019-08-02 10:13:00;15;43;25.1;31;31.7;1013.2;0.0;0.3;E;1016.4;12.5;31.7;294.9;
138;2019-08-02 10:28:00;15;43;25.1;28;33.0;1013.1;0.0;0.0;SE;1016.3;12.0;33.0;294.9;
139;2019-08-02 10:43:00;15;43;25.1;27;32.5;1013.0;0.0;0.0;ESE;1016.2;11.1;32.5;294.9;
140;2019-08-02 10:58:00;15;43;25.1;27;33.1;1013.0;0.0;0.0;SE;1016.2;11.6;33.1;294.9;
141;2019-08-02 11:13:00;15;43;25.1;32;29.8;1013.0;0.0;0.0;SE;1016.2;11.3;29.8;294.9;
142;2019-08-02 11:28:00;15;44;25.1;35;30.8;1012.8;0.0;0.0;E;1016.0;13.5;30.8;294.9;
143;2019-08-02 11:43:00;15;43;25.1;26;33.6;1012.7;0.0;0.0;SE;1015.9;11.4;33.6;294.9;
144;2019-08-02 11:58:00;15;43;25.1;23;34.6;1012.6;0.0;0.0;SE;1015.8;10.4;34.6;294.9;
145;2019-08-02 12:13:00;15;42;25.1;25;33.1;1012.5;0.0;0.3;SE;1015.7;10.4;33.1;294.9;
146;2019-08-02 12:28:00;15;42;25.1;28;32.1;1012.8;0.0;0.0;E;1016.0;11.3;32.1;294.9;
147;2019-08-02 12:43:00;15;42;25.1;25;32.7;1012.8;0.0;0.3;SE;1016.0;10.1;32.7;294.9;
148;2019-08-02 12:58:00;15;41;25.1;23;33.2;1012.7;0.0;0.0;E;1015.9;9.3;33.2;294.9;
149;2019-08-02 13:13:00;15;41;25.1;30;30.8;1012.5;0.0;0.0;E;1015.7;11.2;30.8;294.9;
150;2019-08-02 13:28:00;15;40;25.1;30;31.0;1012.5;0.0;0.0;E;1015.7;11.4;31.0;294.9;
151;2019-08-02 13:43:00;15;41;25.1;30;29.7;1012.3;0.0;0.0;SE;1015.5;10.3;29.7;294.9;
152;2019-08-02 13:58:00;15;41;25.1;30;29.4;1012.2;0.0;0.0;E;1015.4;10.0;29.4;294.9;
153;2019-08-02 14:13:00;15;41;25.1;30;30.0;1012.2;0.0;0.0;ESE;1015.4;10.5;30.0;294.9;
154;2019-08-02 14:28:00;15;41;25.1;23;33.0;1012.3;0.0;0.0;SE;1015.5;9.1;33.0;294.9;
155;2019-08-02 14:43:00;15;41;25.9;23;34.6;1012.1;0.0;0.0;E;1015.3;10.4;34.6;294.9;
156;2019-08-02 14:58:00;15;40;25.9;26;31.0;1012.0;0.0;0.0;SE;1015.2;9.2;31.0;294.9;
157;2019-08-02 15:13:00;15;39;25.9;30;28.1;1012.0;0.0;0.0;E;1015.2;8.9;28.1;294.9;
158;2019-08-02 15:28:00;15;38;25.9;30;29.4;1011.7;0.0;0.0;E;1014.9;10.0;29.4;294.9;
159;2019-08-02 15:43:00;15;37;25.9;28;30.6;1011.5;0.0;0.0;E;1014.7;10.0;30.6;294.9;
160;2019-08-02 15:58:00;15;37;25.9;30;29.1;1011.6;0.0;0.0;E;1014.8;9.7;29.1;294.9;
161;2019-08-02 16:13:00;15;37;25.9;30;29.5;1011.5;0.0;0.0;SE;1014.7;10.1;29.5;294.9;
162;2019-08-02 16:28:00;15;37;25.9;30;29.2;1011.3;0.0;0.0;SE;1014.5;9.8;29.2;294.9;
163;2019-08-02 16:43:00;15;37;25.9;30;28.6;1011.2;0.0;0.0;E;1014.4;9.3;28.6;294.9;
164;2019-08-02 16:58:00;15;37;25.9;31;28.4;1011.4;0.0;0.0;E;1014.6;9.6;28.4;294.9;
165;2019-08-02 17:13:00;15;37;25.9;31;28.0;1011.6;0.0;0.0;N;1014.8;9.3;28.0;294.9;
166;2019-08-02 17:28:00;15;38;25.9;32;27.5;1011.3;0.0;0.0;SSW;1014.5;9.3;27.5;294.9;
167;2019-08-02 17:43:00;15;37;25.9;36;27.0;1011.2;0.0;0.0;SSW;1014.4;10.6;27.0;294.9;
168;2019-08-02 17:58:00;15;37;25.9;38;26.7;1011.3;0.0;0.0;SSW;1014.5;11.2;26.7;294.9;
169;2019-08-02 18:13:00;15;38;25.9;40;26.6;1011.6;0.0;0.0;SSW;1014.8;11.9;26.6;294.9;
170;2019-08-02 18:28:00;15;39;25.9;40;26.0;1011.7;0.0;0.0;SSW;1014.9;11.3;26.0;294.9;
171;2019-08-02 18:43:00;15;40;25.9;41;25.6;1011.5;0.0;0.0;N;1014.7;11.4;25.6;294.9;
172;2019-08-02 18:58:00;15;40;25.9;44;25.3;1012.0;0.0;0.0;SE;1015.2;12.2;25.3;294.9;
173;2019-08-02 19:13:00;15;41;25.9;46;24.9;1012.0;0.0;0.0;E;1015.2;12.5;24.9;294.9;
174;2019-08-02 19:28:00;15;41;25.9;47;24.4;1012.2;0.0;0.0;E;1015.4;12.3;24.4;294.9;
175;2019-08-02 19:43:00;15;42;25.9;48;23.9;1012.4;0.0;0.0;SE;1015.6;12.2;23.9;294.9;
176;2019-08-02 19:58:00;15;42;25.9;50;23.5;1012.7;0.0;0.0;SE;1015.9;12.5;23.5;294.9;
177;2019-08-02 20:13:00;15;43;25.9;50;23.3;1012.9;0.0;0.0;SSW;1016.1;12.3;23.3;294.9;
178;2019-08-02 20:28:00;15;43;25.9;50;23.1;1012.8;0.0;0.0;SE;1016.0;12.1;23.1;294.9;
179;2019-08-02 20:43:00;15;44;25.9;51;22.8;1013.1;0.0;0.0;SE;1016.3;12.1;22.8;294.9;
180;2019-08-02 20:58:00;15;44;25.9;52;22.5;1013.3;0.0;0.3;E;1016.5;12.1;22.5;294.9;
181;2019-08-02 21:13:00;15;44;25.9;57;22.2;1013.2;0.0;0.3;SE;1016.4;13.3;22.2;294.9;
182;2019-08-02 21:28:00;15;44;25.9;59;21.9;1013.1;0.0;0.0;SE;1016.3;13.5;21.9;294.9;
183;2019-08-02 21:43:00;15;44;25.9;60;21.6;1013.4;0.0;0.3;SSW;1016.6;13.5;21.6;294.9;
184;2019-08-02 21:58:00;15;44;25.9;61;21.3;1013.5;0.0;0.0;SE;1016.7;13.5;21.3;294.9;
185;2019-08-02 22:13:00;15;44;25.9;61;21.0;1013.5;0.0;0.0;SE;1016.7;13.2;21.0;294.9;
186;2019-08-02 22:28:00;15;44;25.9;62;20.8;1013.3;0.0;0.0;SE;1016.5;13.2;20.8;294.9;
187;2019-08-02 22:43:00;15;45;25.9;62;20.6;1013.5;0.0;0.0;NE;1016.7;13.1;20.6;294.9;
188;2019-08-02 22:58:00;15;45;25.9;63;20.3;1013.4;0.0;0.0;SE;1016.6;13.0;20.3;294.9;
189;2019-08-02 23:12:59;15;45;25.9;63;20.0;1013.7;0.0;0.0;E;1016.9;12.7;20.0;294.9;
190;2019-08-02 23:27:59;15;45;25.9;63;19.7;1013.5;0.0;0.0;NE;1016.7;12.5;19.7;294.9;
191;2019-08-02 23:43:00;15;45;25.9;62;19.4;1013.8;0.0;0.0;ESE;1017.0;11.9;19.4;294.9;
192;2019-08-02 23:58:00;15;45;25.9;62;19.3;1013.6;0.0;0.0;SSW;1016.8;11.8;19.3;294.9;
193;2019-08-03 00:13:00;15;45;25.9;63;19.0;1013.5;0.0;0.0;SE;1016.7;11.8;19.0;294.9;
194;2019-08-03 00:28:00;15;45;25.9;65;18.7;1013.6;0.0;0.0;NE;1016.8;12.0;18.7;294.9;
195;2019-08-03 00:43:00;15;45;25.9;66;18.4;1013.5;0.0;0.0;E;1016.7;11.9;18.4;294.9;
196;2019-08-03 00:58:00;15;45;25.9;67;18.2;1013.6;0.0;0.0;E;1016.8;12.0;18.2;294.9;
197;2019-08-03 01:13:00;15;45;25.9;68;18.0;1013.5;0.0;0.0;SE;1016.7;12.0;18.0;294.9;
198;2019-08-03 01:28:00;15;46;25.9;69;17.8;1013.6;0.0;0.0;SE;1016.8;12.0;17.8;294.9;
199;2019-08-03 01:43:00;15;45;25.9;72;17.4;1013.6;0.0;0.0;SE;1016.8;12.3;17.4;294.9;
200;2019-08-03 01:58:00;15;46;25.9;74;17.2;1013.7;0.0;0.0;E;1016.9;12.5;17.2;294.9;
201;2019-08-03 02:13:00;15;46;25.9;74;17.0;1013.5;0.0;0.0;E;1016.7;12.3;17.0;294.9;
202;2019-08-03 02:28:00;15;46;25.9;76;16.7;1013.6;0.0;0.0;SE;1016.8;12.4;16.7;294.9;
203;2019-08-03 02:43:00;15;46;25.1;77;16.6;1013.9;0.0;0.0;E;1017.1;12.5;16.6;294.9;
204;2019-08-03 02:58:00;15;46;25.1;79;16.3;1013.8;0.0;0.0;SE;1017.0;12.6;16.3;294.9;
205;2019-08-03 03:13:00;15;46;25.1;79;16.0;1013.6;0.0;0.0;SE;1016.8;12.4;16.0;294.9;
206;2019-08-03 03:28:00;15;46;25.1;81;15.8;1013.9;0.0;0.0;SE;1017.1;12.5;15.8;294.9;
207;2019-08-03 03:43:00;15;46;25.1;82;16.0;1013.7;0.0;0.0;SE;1016.9;12.9;16.0;294.9;
208;2019-08-03 03:58:00;15;47;25.1;82;16.0;1014.1;0.0;0.0;SE;1017.3;12.9;16.0;294.9;
209;2019-08-03 04:13:00;15;48;25.1;83;15.8;1014.1;0.0;0.0;SE;1017.3;12.9;15.8;294.9;
210;2019-08-03 04:28:00;15;49;25.1;84;15.9;1014.2;0.0;0.0;SE;1017.4;13.2;15.9;294.9;
211;2019-08-03 04:43:00;15;49;25.1;83;16.5;1014.3;0.0;0.0;NE;1017.5;13.6;16.5;294.9;
212;2019-08-03 04:58:00;15;49;25.1;82;16.7;1014.2;0.0;0.0;E;1017.4;13.6;16.7;294.9;
213;2019-08-03 05:13:00;15;49;25.1;81;16.7;1014.5;0.0;0.0;SE;1017.7;13.4;16.7;294.9;
214;2019-08-03 05:28:00;15;49;25.1;81;16.9;1014.4;0.0;0.0;SE;1017.6;13.6;16.9;294.9;
215;2019-08-03 05:43:00;15;49;25.1;80;17.2;1014.3;0.0;0.0;SE;1017.5;13.7;17.2;294.9;
216;2019-08-03 05:58:00;15;49;25.1;75;17.6;1014.5;0.0;0.0;SE;1017.7;13.1;17.6;294.9;
217;2019-08-03 06:13:00;15;49;25.1;73;18.1;1014.4;0.0;0.0;E;1017.6;13.2;18.1;294.9;
218;2019-08-03 06:28:00;15;49;25.1;72;18.3;1014.9;0.0;0.0;SSW;1018.1;13.2;18.3;294.9;
219;2019-08-03 06:43:00;15;49;25.1;71;18.6;1014.8;0.0;0.0;N;1018.0;13.2;18.6;294.9;
220;2019-08-03 06:58:00;15;49;25.1;70;20.3;1014.8;0.0;0.0;SW;1018.0;14.6;20.3;294.9;
221;2019-08-03 07:13:00;15;49;25.1;63;22.3;1014.7;0.0;0.0;SSW;1017.9;14.9;22.3;294.9;
222;2019-08-03 07:28:00;15;49;25.1;59;23.4;1014.4;0.0;0.0;SSW;1017.6;14.9;23.4;294.9;
223;2019-08-03 07:43:00;15;50;25.1;53;24.1;1014.6;0.0;0.0;SE;1017.8;13.9;24.1;294.9;
224;2019-08-03 07:58:00;15;50;25.1;55;24.2;1014.6;0.0;0.0;SE;1017.8;14.6;24.2;294.9;
225;2019-08-03 08:13:00;15;50;25.1;53;24.5;1014.6;0.0;0.0;SE;1017.8;14.3;24.5;294.9;
226;2019-08-03 08:28:00;15;50;25.1;54;23.9;1014.8;0.0;0.0;E;1018.0;14.0;23.9;294.9;
227;2019-08-03 08:43:00;15;50;25.1;54;23.3;1014.5;0.0;0.0;SE;1017.7;13.5;23.3;294.9;
228;2019-08-03 08:58:00;15;50;25.1;57;23.0;1014.5;0.0;0.0;SE;1017.7;14.0;23.0;294.9;
229;2019-08-03 09:13:00;15;50;25.1;54;24.0;1014.5;0.0;0.0;SE;1017.7;14.1;24.0;294.9;
230;2019-08-03 09:28:00;15;50;25.1;52;24.0;1014.5;0.0;0.0;SE;1017.7;13.5;24.0;294.9;
231;2019-08-03 09:43:00;15;50;25.1;50;25.2;1014.2;0.0;0.3;SSW;1017.4;14.0;25.2;294.9;
232;2019-08-03 09:58:00;15;50;25.9;49;26.0;1014.3;0.0;0.0;SSW;1017.5;14.4;26.0;294.9;
233;2019-08-03 10:13:00;15;50;25.9;47;26.4;1014.1;0.0;0.0;SSW;1017.3;14.2;26.4;294.9;
234;2019-08-03 10:28:00;15;50;25.9;49;26.2;1014.1;0.0;0.0;SSW;1017.3;14.6;26.2;294.9;
235;2019-08-03 10:43:00;15;50;25.9;48;26.3;1014.0;0.0;0.0;N;1017.2;14.4;26.3;294.9;
236;2019-08-03 10:58:00;15;50;25.9;45;27.2;1013.9;0.0;0.0;SSW;1017.1;14.2;27.2;294.9;
237;2019-08-03 11:13:00;15;51;25.9;45;26.8;1013.8;0.0;0.0;SE;1017.0;13.9;26.8;294.9;
238;2019-08-03 11:28:00;15;51;25.9;40;28.1;1013.9;0.0;0.3;SE;1017.1;13.2;28.1;294.9;
239;2019-08-03 11:43:00;15;51;25.9;41;27.9;1014.0;0.0;0.0;SE;1017.2;13.4;27.9;294.9;
240;2019-08-03 11:58:00;15;50;25.9;40;28.7;1013.9;0.0;0.3;SE;1017.1;13.7;28.7;294.9;
241;2019-08-03 12:13:00;15;50;25.9;39;29.5;1013.7;0.0;0.0;E;1016.9;14.1;29.5;294.9;
242;2019-08-03 12:28:00;15;50;25.9;39;28.9;1013.5;0.0;0.3;SE;1016.7;13.5;28.9;294.9;
243;2019-08-03 12:43:00;15;50;25.9;40;28.1;1013.6;0.0;0.0;SE;1016.8;13.2;28.1;294.9;
244;2019-08-03 12:58:00;15;50;25.9;40;28.7;1013.7;0.0;0.0;SE;1016.9;13.7;28.7;294.9;
245;2019-08-03 13:13:00;15;50;25.9;38;28.5;1013.6;0.0;0.3;SE;1016.8;12.8;28.5;294.9;
246;2019-08-03 13:28:00;15;50;25.9;43;26.9;1013.5;0.0;0.0;E;1016.7;13.2;26.9;294.9;
247;2019-08-03 13:43:00;15;51;25.9;38;28.6;1013.2;0.0;0.0;SSE;1016.4;12.9;28.6;294.9;
248;2019-08-03 13:58:00;15;50;25.9;37;28.2;1013.4;0.0;0.0;SE;1016.6;12.1;28.2;294.9;
249;2019-08-03 14:13:00;15;50;25.9;43;27.3;1013.0;0.0;0.0;S;1016.2;13.6;27.3;294.9;
250;2019-08-03 14:28:00;15;50;25.9;43;27.3;1013.2;0.0;0.3;E;1016.4;13.6;27.3;294.9;
251;2019-08-03 14:43:00;15;50;25.9;40;27.6;1013.0;0.0;0.0;SE;1016.2;12.8;27.6;294.9;
252;2019-08-03 14:58:00;15;50;25.9;44;26.9;1012.8;0.0;0.3;SW;1016.0;13.6;26.9;294.9;
253;2019-08-03 15:13:00;15;50;25.9;41;27.6;1012.6;0.0;0.0;SSW;1015.8;13.1;27.6;294.9;
254;2019-08-03 15:28:00;15;50;25.9;43;27.4;1012.6;0.0;0.0;SE;1015.8;13.7;27.4;294.9;
255;2019-08-03 15:43:00;15;50;25.9;44;26.9;1012.6;0.0;0.0;SE;1015.8;13.6;26.9;294.9;
256;2019-08-03 15:58:00;15;50;25.9;44;26.6;1012.3;0.0;0.0;E;1015.5;13.3;26.6;294.9;
257;2019-08-03 16:13:00;15;50;25.9;44;26.4;1012.6;0.0;0.0;SSW;1015.8;13.2;26.4;294.9;
258;2019-08-03 16:28:00;15;50;25.9;43;26.4;1012.5;0.0;0.0;SSW;1015.7;12.8;26.4;294.9;
259;2019-08-03 16:43:00;15;50;25.9;43;26.4;1012.2;0.0;0.0;SSW;1015.4;12.8;26.4;294.9;
260;2019-08-03 16:58:00;15;50;25.9;44;26.4;1012.4;0.0;0.0;N;1015.6;13.2;26.4;294.9;
261;2019-08-03 17:13:00;15;50;25.9;44;25.9;1012.1;0.0;0.0;SSW;1015.3;12.7;25.9;294.9;
262;2019-08-03 17:28:00;15;50;25.9;45;25.4;1012.1;0.0;0.0;WSW;1015.3;12.6;25.4;294.9;
263;2019-08-03 17:43:00;15;50;25.9;46;25.1;1011.9;0.0;0.0;S;1015.1;12.7;25.1;294.9;
264;2019-08-03 17:58:00;15;50;25.9;46;25.1;1012.0;0.0;0.0;SSW;1015.2;12.7;25.1;294.9;
265;2019-08-03 18:13:00;15;49;25.9;47;24.7;1012.0;0.0;0.0;SSW;1015.2;12.6;24.7;294.9;
266;2019-08-03 18:28:00;15;49;25.9;48;24.2;1011.9;0.0;0.3;SSW;1015.1;12.5;24.2;294.9;
267;2019-08-03 18:43:00;15;49;25.9;49;23.7;1011.6;0.0;0.0;SSW;1014.8;12.3;23.7;294.9;
268;2019-08-03 18:58:00;15;49;25.9;50;23.5;1011.8;0.0;0.3;N;1015.0;12.5;23.5;294.9;
269;2019-08-03 19:13:00;15;49;25.9;50;23.2;1011.7;0.0;0.0;N;1014.9;12.2;23.2;294.9;
270;2019-08-03 19:28:00;15;49;25.9;50;23.0;1011.7;0.0;0.0;N;1014.9;12.0;23.0;294.9;
271;2019-08-03 19:43:00;15;49;25.9;51;22.6;1011.6;0.0;0.0;SSW;1014.8;11.9;22.6;294.9;
272;2019-08-03 19:58:00;15;49;25.9;55;22.2;1011.9;0.0;0.0;SSW;1015.1;12.7;22.2;294.9;
273;2019-08-03 20:13:00;15;49;25.9;57;21.8;1012.0;0.0;0.0;SSW;1015.2;12.9;21.8;294.9;
274;2019-08-03 20:28:00;15;49;25.9;58;21.6;1011.8;0.0;0.0;SSW;1015.0;13.0;21.6;294.9;
275;2019-08-03 20:43:00;15;49;25.9;59;21.3;1011.8;0.0;0.0;SSW;1015.0;13.0;21.3;294.9;
276;2019-08-03 20:58:00;15;49;25.9;60;21.5;1011.6;0.0;0.0;SSW;1014.8;13.4;21.5;294.9;
277;2019-08-03 21:13:00;15;49;25.9;60;21.2;1011.7;0.0;0.0;SSW;1014.9;13.1;21.2;294.9;
278;2019-08-03 21:28:00;15;49;25.9;61;20.8;1011.8;0.0;0.0;SSW;1015.0;13.0;20.8;294.9;
279;2019-08-03 21:43:00;15;49;25.9;62;20.7;1011.6;0.0;0.0;SSW;1014.8;13.2;20.7;294.9;
280;2019-08-03 21:58:00;15;49;25.9;62;20.3;1011.9;0.0;0.0;SSW;1015.1;12.8;20.3;294.9;
281;2019-08-03 22:13:00;15;49;25.9;64;19.8;1011.8;0.0;0.0;SSW;1015.0;12.8;19.8;294.9;